This is the latest recevied weather packets stored in our database for station/object IN3XSV. If no packets are shown the sender has not sent any weather packets the latest 10 day(s).
| Time | Temp. | Humidity | Pressure | Rain* | Wind** | Luminosity | Snow |
|---|---|---|---|---|---|---|---|
| 1777371238 | 17.78° C | 69% | 1009.6 hPa | 0 mm | - | - | - |
| 1777370938 | 17.78° C | 71% | 1009.8 hPa | 0 mm | - | - | - |
| 1777370638 | 17.22° C | 71% | 1009.8 hPa | 0 mm | - | - | - |
| 1777370338 | 17.22° C | 70% | 1009.9 hPa | 0 mm | - | - | - |
| 1777370038 | 17.22° C | 71% | 1010 hPa | 0 mm | - | - | - |
| 1777369738 | 17.22° C | 72% | 1009.9 hPa | 0 mm | - | - | - |
| 1777369439 | 17.22° C | 72% | 1009.9 hPa | 0 mm | - | - | - |
| 1777369138 | 16.67° C | 72% | 1009.9 hPa | 0 mm | - | - | - |
| 1777368838 | 16.67° C | 73% | 1010 hPa | 0 mm | - | - | - |
| 1777368538 | 16.67° C | 74% | 1010.1 hPa | 0 mm | - | - | - |
| 1777368239 | 16.11° C | 75% | 1010.1 hPa | 0 mm | - | - | - |
| 1777367939 | 16.11° C | 76% | 1010.1 hPa | 0 mm | - | - | - |
| 1777367639 | 15.56° C | 76% | 1010.2 hPa | 0 mm | - | - | - |
| 1777367338 | 15.56° C | 76% | 1010.3 hPa | 0 mm | - | - | - |
| 1777367039 | 16.11° C | 76% | 1010.3 hPa | 0 mm | - | - | - |
| 1777366739 | 16.11° C | 77% | 1010.4 hPa | 0 mm | - | - | - |
| 1777366439 | 15.56° C | 78% | 1010.5 hPa | 0 mm | - | - | - |
| 1777366138 | 15.56° C | 78% | 1010.5 hPa | 0 mm | - | - | - |
| 1777365839 | 15.56° C | 78% | 1010.5 hPa | 0 mm | - | - | - |
| 1777365539 | 15.56° C | 78% | 1010.5 hPa | 0 mm | - | - | - |
| 1777365239 | 15.56° C | 79% | 1010.5 hPa | 0 mm | - | - | - |
| 1777364939 | 15° C | 79% | 1010.4 hPa | 0 mm | - | - | - |
| 1777364639 | 14.44° C | 79% | 1010.3 hPa | 0 mm | - | - | - |
| 1777364339 | 13.89° C | 79% | 1010.2 hPa | 0 mm | - | - | - |
| 1777364039 | 13.89° C | 79% | 1010.3 hPa | 0 mm | - | - | - |
* Rain latest hour (hover to see other rain measurements)
** Current wind speed in m/s (hover to see current wind gust speed)